#timestamp,LO_Frequency,Hit 
1500627615.2,286046960.7,N
1500627635.9,286046956.9,N
1500627655.7,286046957.4,N
1500627675.5,286046954.9,N
1500627695.4,286046959.4,N
1500627715.2,286046957.1,N
1500627735.0,286046957.9,N
1500627735.9,286046957.9,N
1500627755.8,286046953.8,N
1500627775.6,286046952.9,N
1500627795.4,286046952.7,N
1500627815.3,286046951.0,N
1500627835.1,286046950.5,N
1500627855.8,286046951.5,N
1500627875.7,286046948.6,N
1500627895.5,286046949.9,N
1500627915.3,286046949.2,N
1500627935.2,286046949.6,N
1500627955.9,286046947.6,N
1500627975.7,286046947.9,N
1500627995.6,286046947.9,N
1500628015.4,286046948.3,N
1500628035.2,286046945.9,N
1500628055.1,286046943.8,N
1500628056.0,286046943.8,N
1500628075.8,286046946.5,N
1500628095.6,286046946.8,N
1500628115.4,286046943.2,N
1500628135.3,286046942.5,N
1500628155.1,286046942.4,N
1500628175.8,286046942.3,N
1500628195.7,286046943.0,N
1500628215.5,286046943.4,N
1500628235.3,286046940.5,N
1500628255.2,286046943.1,N
1500628275.0,286046943.6,N
1500628275.9,286046943.6,N
1500628295.7,286046942.9,N
1500628315.6,286046940.6,N
1500628335.4,286046941.4,N
1500628355.2,286046939.4,N
1500628375.1,286046939.0,N
1500628376.0,286046939.0,N
1500628395.8,286046940.4,N
1500628415.6,286046937.9,N
1500628435.5,286046938.0,N
1500628455.3,286046938.1,N
1500628475.1,286046936.0,N
1500628495.9,286046936.8,N
1500628515.7,286046936.5,N
1500628535.5,286046935.7,N
1500628555.4,286046936.2,N
1500628575.2,286046936.3,N
1500628595.0,286046934.2,N
1500628595.9,286046934.2,N
1500628615.8,286046936.3,N
1500628635.6,286046936.1,N
1500628655.4,286046936.3,N
1500628675.3,286046934.9,N
1500628695.1,286046935.3,N
1500628696.0,286046935.3,N
1500628715.8,286046934.8,N
1500628735.7,286046933.4,N
1500628755.5,286046931.9,N
1500628775.3,286046931.5,N
1500628795.1,286046931.2,N
1500628815.9,286046931.6,N
1500628835.7,286046929.5,N
1500628855.5,286046931.7,N
1500628875.4,286046931.5,N
1500628895.2,286046933.4,N
1500628915.0,286046928.7,N
1500628915.9,286046928.7,N
1500628935.8,286046926.9,N
1500628955.6,286046926.2,N
1500628975.4,286046928.3,N
1500628995.3,286046930.1,N
1500629015.1,286046931.9,N
1500629016.0,286046931.9,N
1500629035.8,286046931.7,N
1500629055.7,286046932.1,N
1500629075.5,286046931.8,N
1500629095.3,286046930.9,N
1500629115.2,286046929.6,N
1500629135.9,286046932.4,N
1500629155.7,286046929.8,N
1500629175.6,286046929.9,N
1500629195.4,286046929.4,N
1500629215.2,286046929.6,N
1500629235.1,286046927.8,N
1500629236.0,286046927.8,N
1500629255.8,286046928.7,N
1500629275.6,286046926.1,N
1500629295.5,286046926.6,N
1500629315.3,286046926.3,N
1500629335.1,286046926.3,N
1500629355.8,286046927.6,N
1500629375.7,286046927.5,N
1500629395.5,286046927.4,N
1500629415.3,286046926.7,N
1500629435.2,286046926.7,N
1500629455.0,286046927.2,N
1500629455.9,286046927.2,N
1500629475.7,286046925.4,N
1500629495.6,286046925.4,N
1500629515.4,286046925.7,N
1500629535.2,286046924.3,N
1500629555.1,286046922.3,N
1500629556.0,286046922.3,N
1500629575.8,286046922.6,N
1500629595.6,286046922.5,N
1500629615.5,286046921.9,N
1500629635.3,286046922.0,N
1500629655.1,286046922.0,N
1500629675.9,286046920.3,N
1500629695.7,286046920.1,N
1500629715.5,286046920.4,N
1500629735.4,286046920.7,N
1500629755.2,286046920.6,N
1500629775.0,286046920.2,N
1500629775.9,286046920.2,N
1500629795.8,286046920.6,N
1500629815.6,286046921.2,N
1500629835.4,286046920.2,N
1500629855.3,286046922.2,N
1500629875.1,286046922.3,N
1500629876.0,286046922.3,N
1500629895.8,286046922.3,N
1500629915.7,286046920.4,N
1500629935.5,286046922.8,N
1500629955.3,286046922.4,N
1500629975.2,286046922.1,N
1500629995.9,286046922.6,N
1500630015.7,286046922.1,N
1500630035.5,286046922.7,N
1500630055.4,286046919.9,N
1500630075.2,286046920.4,N
1500630095.0,286046920.6,N
1500630095.9,286046920.6,N
1500630115.8,286046918.4,N
1500630135.6,286046919.5,N
1500630155.4,286046917.0,N
1500630175.3,286046919.2,N
1500630195.1,286046919.6,N
1500630215.8,286046916.6,N
1500630235.7,286046917.0,N
1500630255.5,286046915.5,N
1500630275.3,286046914.9,N
1500630295.2,286046914.9,N
1500630315.9,286046915.0,N
1500630335.7,286046916.3,N
1500630355.6,286046916.4,N
1500630375.4,286046913.7,N
1500630395.2,286046913.7,N
1500630415.1,286046914.3,N
1500630416.0,286046914.3,N
1500630435.8,286046911.7,N
1500630455.6,286046912.1,N
1500630475.5,286046911.9,N
1500630495.3,286046911.9,N
1500630515.1,286046910.3,N
1500630535.9,286046910.3,N
1500630555.7,286046908.6,N
1500630575.5,286046908.9,N
1500630595.3,286046911.5,N
1500630615.2,286046908.5,N
1500630635.0,286046910.8,N
1500630635.9,286046910.8,N
1500630655.7,286046910.7,N
1500630675.6,286046911.0,N
1500630695.4,286046909.2,N
1500630715.2,286046907.8,N
1500630735.1,286046909.9,N
1500630736.0,286046909.9,N
1500630755.8,286046911.1,N
1500630775.6,286046908.9,N
1500630795.5,286046909.8,N
1500630815.3,286046908.1,N
1500630835.1,286046909.9,N
1500630855.9,286046909.8,N
1500630875.7,286046910.4,N
1500630895.5,286046909.1,N
1500630915.4,286046907.8,N
1500630935.2,286046907.8,N
1500630955.0,286046908.1,N
1500630955.9,286046908.1,N
1500630975.8,286046905.4,N
1500630995.6,286046905.8,N
1500631015.4,286046905.6,N
1500631035.3,286046906.0,N
1500631055.1,286046905.2,N
1500631056.0,286046905.2,N
1500631075.8,286046902.7,N
1500631095.7,286046903.5,N
1500631115.5,286046902.2,N
1500631135.3,286046903.0,N
1500631155.2,286046900.7,N
1500631175.9,286046902.0,N
1500631195.7,286046900.2,N
